sat.trackr.live / text

‹ back to catalog

MEASAT-3B

NORAD 40147 · 2014-054B

PAYLOAD ACTIVE UNKNOWN

§ Identity

Operator
Country
MALA
Launch date
2014-09-11
Launch site
FRGUI
Launch vehicle
Mass (kg)
RCS (m²)
65.61

Purposes: comms

External: N2YO · Heavens-Above · Gunter

§ Orbital elements

Epoch: 2026-09-19T20:39:23.993568Z

Period
1,436.12 min
Inclination
0.0463°
Eccentricity
0.0001140
Mean motion
1.00269950 rev/d
Perigee alt
35,782.3 km
Apogee alt
35,791.9 km
Semi-major
42,165.2 km
B*
0.0000e+0
RAAN
44.1946°
Arg perigee
69.1461°
Mean anomaly
286.7857°
Rev number
4,386

§ Raw data

MEASAT-3B1 40147U 14054B   26262.86069437 -.00000246  00000+0  00000+0 0  99922 40147   0.0463  44.1946 0001140  69.1461 286.7857  1.00269950 43868

JSON: /api/v1/satellites/40147 · /tle

For live sub-satellite position, see the globe view (requires WebGL).

§ Visibility from observer

Set your observer location to see the next 7 days of passes ≥ 10°. The values pass through the URL so the page stays shareable.

No JS? Fill the form by hand. The geolocation button needs JavaScript.